Starlink 35197

operational
NORAD ID: 66194 Int'l Des: 2025-243 Owner: SPXS Country: US Constellation: starlink
LEOCIRCULAR

关于 Starlink 35197

正在加载描述...

实时位置

正在加载3D地球...

即将过境

高度历史

Altitude vs Time

uPlot chart will show altitude changes over time

两行轨道根数

1 66194C 25243S 25299.73868056 .00778630 00000+0 12790-2 0 2996
2 66194 53.1580 157.0586 0009149 275.2701 36.0748 16.01602384 19
Epoch: Oct 26, 2025 • Age: 135 hours

当前状态

高度 251.1 km
速度 7.76 km/s
星下点 36.86°N, 12.9°E
发射日期 Oct 26, 2025
运行时间 4 days
类型 internet

技术详情

分类 Payload
质量 575.00 kg
干质量 530.00 kg
总质量 575.00 kg
长度 0.30 m
直径 4.10 m
跨度 29.00 m
形状 Box + pan
制造商 SPXS
平台类型 Starlink V2MO
阶段状态 In Orbit
所有者/国家 SPXS/US

大型星座

Loading constellations...